Find Telecom 1C

NORAD ID: 18952 Int'l Des: 1988-018 Owner: FTEL Country: F operational
HEOCIRCULAR

Live Position

Loading 3D Globe...

About Telecom 1C

Description loading...

Upcoming Passes

Passes for default location (London). Set your location on the main map for personalized predictions.

Altitude History

Loading altitude history...

Two-Line Element Set

1 18952U 88018B 26110.46364278 -.00000210 00000-0 00000+0 0 9993
2 18952 15.1052 349.7343 0096461 152.8847 25.0619 0.97959838114888
Epoch: Apr 20, 2026 • Age: 14 hours

Current Status

Altitude 36718.8 km
Velocity 3.03 km/s
Sub-Earth Point 5.42°N, 145.91°E
Launch Date Mar 11, 1988
Age 38.1 years
Type other

Technical Details

Classification Payload
Mass 693.00 kg
Dry Mass 525.00 kg
Total Mass 1213.00 kg
Length 3.00 m
Diameter 2.20 m
Span 16.00 m
Shape Box + 2 Pan
Manufacturer MATT
Bus Type ECS
Phase Status In Orbit
Owner/State FTEL/F

Most Searched